SCP
0 0 0 0 0 0 0 0 0 0 0 0 0 0 0 0 0 0 0 0 0 0
0 0 0 0 0 0 0 0 0 0 0 0 0 0 0 0 0 0 0 0 0 0
0 0 0 0 0 0 0 0 0 0 0 0 0 0 0 0 0 0 0 0 0 0
0 0 0 0 0 0 0 0 0 0 0 0 0 0 0 0 0 0 0 0 0 0
0 0 0 0 0 0 0 0 0 0 0 0 0 0 0 0 0 0 0 0 0 0
0 0 0 0 0 0 0 0 0 0 0 0 0 0 0 0 0 0 0 0 0 0
0 0 0 0 0 0 0 0 0 0 0 0 0 0 0 0 0 0 0 0 0 0
0 0 0 0 0 0 0 0 0 0 0 0 0 0 0 0 0 0 0 0 0 0
0 0 0 0 0 0 0 0 0 0 0 0 0 0 0 0 0 0 0 0 0 0
0 0 0 0 0 0 0 0 0 0 0 0 0 0 0 0 0 0 0 0 0 0
0 0 0 0 0 0 0 0 0 0 0 0 0 0 0 0 0 0 0 0 0 0
0 0 0 0 0 0 0 0 0 0 0 0 0 0 0 0 0 0 0 0 0 0
0 0 0 0 0 0 0 0 0 0 0 0 0 0 0 0 0 0 0 0 0 0
0 0 0 0 0 0 0 0 0 0 0 0 0 0 0 0 0 0 0 0 0 0
Wind_Speed_500mb
58 68 73 71 70 70 68 67 64 64 64 60 57 52 48 50 53 53 52 48 43 41
55 65 71 74 74 72 72 69 67 64 65 65 63 59 54 54 57 60 59 56 48 50
42 52 60 69 73 71 70 73 70 67 66 69 67 63 61 57 59 64 67 65 58 54
43 43 49 56 63 64 65 70 72 68 67 68 68 68 67 63 62 65 68 69 68 65
40 44 45 50 52 56 61 65 67 66 67 69 69 70 71 70 65 67 70 72 70 66
35 39 41 43 47 50 53 59 62 65 68 69 70 73 74 73 69 66 72 73 72 68
38 38 39 40 43 46 49 55 60 65 66 68 70 72 74 75 74 69 71 78 78 74
42 41 41 42 44 45 49 53 56 60 65 67 71 74 75 76 77 73 70 78 84 81
40 44 43 43 44 47 49 51 54 60 63 67 72 73 73 73 75 74 71 71 81 85
36 40 42 42 42 44 47 49 55 58 61 66 68 69 69 69 71 72 70 68 73 81
33 34 36 40 42 41 42 47 49 53 55 59 63 63 62 64 67 68 66 64 68 77
33 36 37 39 38 39 40 43 46 48 51 53 53 49 53 58 64 67 66 61 61 69
33 35 39 40 44 42 44 47 46 48 50 49 49 50 54 58 63 66 64 60 59 58
29 34 38 41 43 43 43 44 45 45 47 47 47 48 51 54 60 61 61 61 58 56
Wind_Direction_500mb
250 246 247 248 250 248 250 249 246 243 243 240 238 237 236 225 213 211 207 210 210 213
254 249 247 246 247 246 243 243 243 243 242 240 237 235 236 230 218 212 212 216 216 215
270 259 250 250 249 247 243 240 239 238 237 238 237 234 235 234 224 217 214 217 220 216
276 264 254 251 251 250 246 240 239 237 234 236 235 233 234 236 232 223 218 218 220 221
280 270 256 251 249 249 246 241 239 238 234 233 233 233 233 235 237 228 224 220 220 221
278 273 265 253 248 245 242 240 238 237 235 232 232 231 231 233 236 236 228 223 221 219
276 271 267 259 249 244 241 239 236 235 234 232 233 233 232 232 234 234 232 225 224 221
277 269 262 257 252 246 241 238 236 235 232 230 230 232 231 231 233 235 234 230 225 223
279 272 265 258 252 245 242 237 234 233 231 230 231 231 231 233 234 235 235 236 230 229
284 277 271 264 256 250 245 241 237 235 233 232 232 232 231 229 231 234 238 239 234 233
281 272 272 264 257 251 249 244 242 241 238 237 236 232 229 227 229 233 237 239 238 236
276 273 266 264 260 252 249 248 244 244 240 237 235 232 227 225 227 231 235 239 240 237
282 273 264 256 257 257 252 248 243 241 239 237 234 228 224 222 225 229 236 239 240 240
280 277 270 258 251 250 249 248 245 240 236 231 229 228 223 220 225 231 236 239 238 237
Wind_Speed_850mb
58 68 73 71 70 70 68 67 64 64 64 60 57 52 48 50 53 53 52 48 43 41
55 65 71 74 74 72 72 69 67 64 65 65 63 59 54 54 57 60 59 56 48 50
42 52 60 69 73 71 70 73 70 67 66 69 67 63 61 57 59 64 67 65 58 54
43 43 49 56 63 64 65 70 72 68 67 68 68 68 67 63 62 65 68 69 68 65
40 44 45 50 52 56 61 65 67 66 67 69 69 70 71 70 65 67 70 72 70 66
35 39 41 43 47 50 53 59 62 65 68 69 70 73 74 73 69 66 72 73 72 68
38 38 39 40 43 46 49 55 60 65 66 68 70 72 74 75 74 69 71 78 78 74
42 41 41 42 44 45 49 53 56 60 65 67 71 74 75 76 77 73 70 78 84 81
40 44 43 43 44 47 49 51 54 60 63 67 72 73 73 73 75 74 71 71 81 85
36 40 42 42 42 44 47 49 55 58 61 66 68 69 69 69 71 72 70 68 73 81
33 34 36 40 42 41 42 47 49 53 55 59 63 63 62 64 67 68 66 64 68 77
33 36 37 39 38 39 40 43 46 48 51 53 53 49 53 58 64 67 66 61 61 69
33 35 39 40 44 42 44 47 46 48 50 49 49 50 54 58 63 66 64 60 59 58
29 34 38 41 43 43 43 44 45 45 47 47 47 48 51 54 60 61 61 61 58 56
Wind_Direction_850mb
250 246 247 248 250 248 250 249 246 243 243 240 238 237 236 225 213 211 207 210 210 213
254 249 247 246 247 246 243 243 243 243 242 240 237 235 236 230 218 212 212 216 216 215
270 259 250 250 249 247 243 240 239 238 237 238 237 234 235 234 224 217 214 217 220 216
276 264 254 251 251 250 246 240 239 237 234 236 235 233 234 236 232 223 218 218 220 221
280 270 256 251 249 249 246 241 239 238 234 233 233 233 233 235 237 228 224 220 220 221
278 273 265 253 248 245 242 240 238 237 235 232 232 231 231 233 236 236 228 223 221 219
276 271 267 259 249 244 241 239 236 235 234 232 233 233 232 232 234 234 232 225 224 221
277 269 262 257 252 246 241 238 236 235 232 230 230 232 231 231 233 235 234 230 225 223
279 272 265 258 252 245 242 237 234 233 231 230 231 231 231 233 234 235 235 236 230 229
284 277 271 264 256 250 245 241 237 235 233 232 232 232 231 229 231 234 238 239 234 233
281 272 272 264 257 251 249 244 242 241 238 237 236 232 229 227 229 233 237 239 238 236
276 273 266 264 260 252 249 248 244 244 240 237 235 232 227 225 227 231 235 239 240 237
282 273 264 256 257 257 252 248 243 241 239 237 234 228 224 222 225 229 236 239 240 240
280 277 270 258 251 250 249 248 245 240 236 231 229 228 223 220 225 231 236 239 238 237